Regional Weather Roundup
Issued by NWS

Home | Current Version | Previous Version | Graphics & Text | Print | Product List | Glossary On
Versions: 1 2 3 4 5 6 7 8 9 10 11 12 13 14 15 16 17 18 19 20 21 22 23 24 25 26 27 28 29 30 31 32 33 34 35 36 37 38 39 40 41 42 43 44 45 46 47 48 49 50
000
ASUS43 KLOT 230900
RWRIL

ILLINOIS REGIONAL WEATHER ROUNDUP
NATIONAL WEATHER SERVICE CHICAGO/ROMEOVILLE IL
300 AM CST SUN NOV 23 2014

NOTE: "FAIR" INDICATES FEW OR NO CLOUDS BELOW 12,000 FEET WITH NO
SIGNIFICANT WEATHER AND/OR OBSTRUCTIONS TO VISIBILITY.

* THESE STATIONS ARE NOT UNDER NWS QUALITY CONTROL. THEY ALSO MAY NOT
  REPORT WEATHER SUCH AS PRECIPITATION OR FOG.

ILZ001-002-007-009-015-016-024-231000-
NORTHWEST ILLINOIS

CITY           SKY/WX    TMP DP  RH WIND       PRES   REMARKS
MOLINE         CLOUDY    53  48  83 S16G23    29.70F
STERLING*      CLOUDY    50  46  87 S6        29.74F
$$

ILZ003-004-008-010-011-017-018-231000-
NORTH CENTRAL ILLINOIS

CITY           SKY/WX    TMP DP  RH WIND       PRES   REMARKS
ROCKFORD       CLOUDY    48  46  93 S12       29.76F FOG
FREEPORT*      CLOUDY    47  47  98 S14       29.74F FOG
DE KALB*       CLOUDY    46  46  98 S14       29.78F
$$

ILZ005-006-012>014-019>023-231000-
NORTHEAST ILLINOIS

CITY           SKY/WX    TMP DP  RH WIND       PRES   REMARKS
CHICAGO-OHARE  CLOUDY    51  46  83 S15       29.79F
CHICAGO-MIDWAY CLOUDY    51  46  83 S12       29.81F
AURORA         CLOUDY    52  46  80 S12       29.79F
WAUKEGAN       CLOUDY    50  47  89 S17       29.76F
DUPAGE AIRPORT CLOUDY    49  46  90 S10       29.79F
WHEELING       CLOUDY    51  47  86 S14       29.80F
NORTHERLY ISL    N/A     50  45  83 S14         N/A
$$

LMZ740>746-231000-
SOUTHERN LAKE MICHIGAN

STATION/POSITION SKY/WX   TEMP    WIND        PRES    VSBY  WAVE
                          AIR SEA DIR/SP/G                  HT/PER
                          (F)     (DEG/KT/KT) (MB)    (MI)  (FT/S)
SOUTHERN BUOY              46 43  180/ 17/ 19 1009.8F         3/ 4
WAUKEGAN HARBOR            51     220/ 21/ 24   N/A
HARRISON CRIB              49     200/ 26/ 29   N/A
BURNHAM HARBOR             50     220/ 12/ 17   N/A
CALUMET HARBOR             49     180/  9/ 12 1009.0F
MICHIGAN CITY              50     170/ 15/ 21   N/A
$$

ILZ025>027-034>036-040-047-049-050-058-095>099-231000-
WEST-CENTRAL ILLINOIS

CITY           SKY/WX    TMP DP  RH WIND       PRES   REMARKS
QUINCY         CLOUDY    52  47  83 S9        29.72F
$$

ILZ028>032-037-038-041>044-048-051>054-059>061-231000-
CENTRAL ILLINOIS

CITY           SKY/WX    TMP DP  RH WIND       PRES   REMARKS
DECATUR        CLOUDY    50  44  80 S9        29.83F
PEORIA         MOCLDY    51  46  83 S9        29.77F
LINCOLN*       MOCLDY    48  44  85 S6        29.79F
SPRINGFIELD    MOCLDY    52  43  71 S16       29.78F
TAYLORVILLE    NOT AVBL
$$

ILZ033-039-045-046-055>057-062-063-231000-
EAST-CENTRAL ILLINOIS

CITY           SKY/WX    TMP DP  RH WIND       PRES   REMARKS
CHAMPAIGN      CLOUDY    49  43  80 S12       29.85F
MATTOON        CLOUDY    50  40  68 S13       29.85F
$$

ILZ079-100>102-231000-
SOUTHWEST ILLINOIS

CITY           SKY/WX    TMP DP  RH WIND       PRES   REMARKS
CAHOKIA*       MOCLDY    52  43  71 S9        29.80F
$$

ILZ064>066-069>071-074>076-080>082-084>086-088>090-092>094-231000-
SOUTH-CENTRAL ILLINOIS

CITY           SKY/WX    TMP DP  RH WIND       PRES   REMARKS
CARBONDALE     MOCLDY    53  42  66 SE10      29.87F
MT. VERNON     PTCLDY    52  39  62 S6        29.89F
$$

ILZ067-068-072-073-078-083-087-091-231000-
SOUTHEAST ILLINOIS

CITY           SKY/WX    TMP DP  RH WIND       PRES   REMARKS
LAWRENCEVILLE  CLOUDY    49  39  68 S13       29.92F
$$

ABBREVIATIONS USED IN REMARKS
   TC - TEMPERATURE IN CELSIUS
  WCI - WIND CHILL INDEX
   HX - HEAT INDEX
  VSB - VISIBILITY
$$




USA.gov is the U.S. government's official web portal to all federal, state and local government web resources and services.